#timestamp,LO_Frequency,Hit,StdDev 
1507723215.8,286046996.6,N
1507723235.6,286046998.2,N
1507723255.4,286047002.4,N
1507723275.3,286047001.1,N
1507723295.1,286046996.5,N
1507723296.0,286046996.5,N
1507723315.8,286046998.9,N
1507723335.6,286046996.5,N
1507723355.5,286046992.1,Y
1507723375.3,286046995.1,P
1507723395.1,286046997.9,N
1507723415.9,286046997.0,N
1507723435.7,286046998.2,N
1507723455.5,286047001.5,N
1507723475.4,286047003.5,N
1507723495.2,286047005.5,N
1507723515.0,286047003.3,N
1507723515.9,286047003.3,N
1507723535.8,286047000.4,N
1507723555.6,286046999.1,N
1507723575.4,286046997.6,N
1507723595.3,286047000.7,N
1507723615.1,286047000.4,N
1507723616.0,286047000.4,N
1507723635.8,286047002.6,N
1507723655.7,286047003.6,N
1507723675.5,286047006.8,N
1507723695.3,286047005.2,N
1507723715.2,286047007.5,N
1507723735.9,286047009.2,N
1507723755.7,286047004.5,N
1507723775.5,286047007.7,N
1507723795.4,286047005.4,N
1507723815.2,286047004.5,N
1507723835.0,286047006.0,N
1507723835.9,286047006.0,N
1507723855.8,286047004.8,N
1507723875.6,286047004.7,N
1507723895.4,286047006.4,N
1507723915.3,286047005.7,N
1507723935.1,286047007.6,N
1507723955.8,286047007.4,N
1507723975.7,286047001.5,N
1507723995.5,286047003.0,N
1507724015.3,286047002.7,N
1507724035.2,286047002.7,N
1507724055.9,286046999.9,N
1507724075.7,286047003.9,N
1507724095.6,286046998.6,N
1507724115.4,286047004.0,N
1507724135.2,286047003.9,N
1507724155.0,286047000.2,N
1507724156.0,286047000.2,N
1507724175.8,286047003.1,N
1507724195.6,286047004.7,N
1507724215.4,286047003.3,N
1507724235.3,286047003.5,N
1507724255.1,286047004.8,N
1507724275.8,286047004.8,N
1507724295.7,286047004.0,N
1507724315.5,286047001.6,N
1507724335.3,286047004.6,N
1507724355.2,286047008.8,Y
1507724375.0,286047002.2,P
1507724375.9,286047002.2,N
1507724395.7,286047002.9,P
1507724415.6,286047006.8,Y
1507724435.4,286047001.4,P
1507724455.2,286047004.0,P
1507724475.1,286047003.5,P
1507724476.0,286047003.5,Y
1507724495.8,286046999.4,P
1507724515.6,286046997.3,N
1507724535.5,286046998.9,N
1507724555.3,286047001.2,N
1507724575.1,286046993.5,Y
1507724595.9,286046996.4,P
1507724615.7,286046996.0,N
1507724635.5,286046997.1,N
1507724655.4,286046995.2,Y
1507724675.2,286046997.0,P
1507724695.0,286046995.6,P
1507724695.9,286046995.6,P
1507724715.8,286046990.6,Y
1507724735.6,286046996.3,P
1507724755.4,286046997.2,P
1507724775.3,286047000.4,N
1507724795.1,286047002.3,N
1507724815.8,286046998.8,N
1507724835.7,286047000.1,N
1507724855.5,286047002.0,N
1507724875.3,286046999.4,N
1507724895.2,286046995.3,N
1507724915.9,286046996.2,N
1507724935.7,286046994.4,N
1507724955.6,286046996.4,N
1507724975.4,286046994.4,N
1507724995.2,286046993.0,N
1507725015.1,286046991.7,Y
1507725016.0,286046991.7,P
1507725035.8,286046994.5,N
1507725055.6,286046993.7,N
1507725075.5,286046995.6,N
1507725095.3,286046993.8,Y
1507725115.1,286046999.2,P
1507725135.9,286046998.6,N
1507725155.7,286046997.5,N
1507725175.5,286047002.4,N
1507725195.4,286046999.7,N
1507725215.2,286047004.2,N
1507725235.0,286047001.4,N
1507725235.9,286047001.4,N
1507725255.8,286046998.9,N
1507725275.6,286047001.1,N
1507725295.4,286047001.8,N
1507725315.2,286047002.4,N
1507725335.1,286047001.9,N
1507725336.0,286047001.9,N
1507725355.8,286046998.6,N
1507725375.7,286046996.8,N
1507725395.5,286047000.7,N
1507725415.3,286047002.8,N
1507725435.1,286046999.4,N
1507725455.9,286047002.5,N
1507725475.7,286047002.9,N
1507725495.5,286047002.5,N
1507725515.4,286047006.0,N
1507725535.2,286047007.6,Y
1507725555.0,286047004.9,P
1507725555.9,286047004.9,N
1507725575.8,286047007.5,P
1507725595.6,286047003.4,N
1507725615.4,286047005.2,N
1507725635.3,286046998.2,N
1507725655.1,286046998.6,N
1507725675.8,286046999.7,N
1507725695.7,286047000.2,N
1507725715.5,286047004.1,N
1507725735.3,286047007.3,N
1507725755.2,286047004.5,N
1507725775.9,286047005.7,N
1507725795.7,286047003.1,N
1507725815.6,286047003.2,N
1507725835.4,286047001.9,N
1507725855.2,286047003.3,N
1507725875.0,286047000.3,N
1507725875.9,286047000.3,N
1507725895.8,286047000.5,N
1507725915.6,286046997.0,N
1507725935.4,286046998.7,N
1507725955.3,286047002.6,N
1507725975.1,286047000.2,N
1507725995.8,286047001.4,N
1507726015.7,286047005.7,N
1507726035.5,286047001.4,N
1507726055.3,286047000.1,N
1507726075.2,286047000.1,N
1507726095.9,286047000.5,N
1507726115.7,286046998.1,N
1507726135.6,286046999.0,N
1507726155.4,286046999.2,N
1507726175.2,286046997.1,N
1507726195.0,286046994.3,N
1507726196.0,286046994.3,N
1507726215.8,286046994.2,N
1507726235.6,286046995.4,N
1507726255.4,286046997.9,N
1507726275.5,286046997.7,N
1507726295.3,286046999.2,N
1507726315.1,286047000.4,N
1507726335.9,286046998.8,N
1507726355.7,286047000.7,N
1507726375.5,286047002.5,N
1507726395.4,286047001.6,N
1507726415.2,286046995.0,N
1507726435.0,286046998.7,N
1507726435.9,286046998.7,N
1507726455.8,286046996.7,N
1507726475.6,286047001.6,N
1507726495.4,286046998.1,N
1507726515.3,286047000.7,N
1507726535.1,286047002.1,N
1507726536.0,286047002.1,N
1507726555.8,286047002.7,N
1507726575.7,286047000.6,N
1507726595.5,286047002.6,N
1507726615.3,286047001.4,N
1507726635.2,286047001.4,N
1507726655.9,286047004.4,N
1507726675.7,286047003.4,N
1507726695.5,286047003.7,N
1507726715.4,286047005.7,N
1507726735.2,286047009.0,N
1507726755.0,286047004.6,N
1507726755.9,286047004.6,N
1507726775.8,286047001.8,N
1507726795.6,286047003.0,N
